Temp
-7 -7 -7 -6 -6 -6 -7 -6 -7 -6 -6 -6 -6 -6 -6 -6 -6 -6 -5 -5 -5 -6 -6 -6 -6 -6 -6 -6 -7 -7 -7 -7 -7 -7 -7 -7 -8 -7 -7 -7 -7 -7 -7
-7 -6 -7 -6 -6 -6 -6 -6 -6 -7 -6 -6 -6 -6 -6 -6 -6 -6 -6 -5 -5 -5 -6 -6 -6 -6 -6 -6 -6 -6 -7 -7 -7 -7 -7 -7 -7 -7 -7 -7 -7 -7 -7
-7 -6 -6 -6 -6 -6 -6 -6 -6 -6 -6 -6 -6 -6 -6 -6 -6 -6 -6 -6 -6 -6 -5 -5 -6 -6 -6 -6 -6 -6 -6 -7 -7 -7 -7 -7 -7 -7 -7 -7 -6 -7 -7
-7 -6 -6 -6 -6 -6 -6 -6 -6 -6 -6 -6 -6 -6 -6 -6 -6 -6 -6 -6 -6 -6 -6 -6 -6 -6 -6 -6 -6 -6 -6 -6 -6 -6 -6 -6 -7 -6 -6 -6 -7 -7 -6
-7 -7 -7 -6 -6 -6 -6 -5 -5 -5 -6 -6 -6 -6 -6 -6 -6 -6 -6 -6 -6 -6 -6 -6 -6 -6 -6 -6 -6 -6 -6 -6 -6 -6 -6 -6 -6 -6 -6 -6 -7 -6 -6
-7 -7 -7 -7 -7 -6 -6 -6 -6 -5 -5 -6 -6 -6 -6 -5 -6 -6 -6 -6 -6 -6 -6 -6 -6 -6 -6 -6 -6 -6 -6 -6 -6 -6 -6 -6 -6 -6 -6 -6 -7 -7 -7
-8 -8 -7 -7 -6 -7 -6 -6 -6 -6 -6 -5 -6 -5 -5 -5 -5 -5 -5 -6 -6 -6 -6 -6 -6 -6 -6 -6 -6 -6 -6 -6 -6 -6 -6 -6 -6 -5 -6 -6 -7 -7 -7
-8 -8 -8 -8 -7 -7 -6 -6 -6 -6 -6 -6 -6 -6 -6 -5 -5 -5 -5 -5 -5 -5 -6 -6 -6 -6 -6 -6 -6 -6 -6 -6 -6 -5 -6 -6 -6 -6 -6 -6 -7 -6 -7
-8 -8 -8 -8 -8 -7 -7 -7 -7 -6 -6 -6 -6 -6 -5 -6 -6 -6 -6 -5 -5 -6 -6 -6 -6 -6 -6 -6 -6 -6 -6 -6 -6 -5 -5 -6 -6 -6 -6 -6 -6 -6 -6
-9 -9 -9 -8 -8 -8 -8 -7 -7 -7 -6 -6 -6 -6 -6 -6 -6 -6 -6 -6 -6 -6 -6 -6 -6 -6 -6 -6 -6 -6 -6 -6 -5 -5 -5 -5 -6 -6 -5 -5 -6 -6 -6
-9 -9 -9 -9 -9 -8 -8 -8 -7 -7 -7 -7 -7 -6 -6 -6 -6 -6 -6 -5 -6 -6 -6 -6 -6 -6 -6 -6 -5 -5 -6 -6 -5 -5 -5 -6 -5 -5 -5 -5 -4 -5 -6
-9 -9 -9 -9 -9 -8 -8 -8 -8 -7 -7 -7 -7 -7 -7 -7 -6 -6 -6 -6 -5 -5 -6 -6 -7 -7 -6 -6 -5 -6 -6 -5 -5 -6 -6 -6 -5 -5 -5 -5 -5 -5 -5
-9 -8 -9 -9 -9 -9 -8 -8 -8 -8 -8 -8 -7 -7 -7 -7 -7 -6 -6 -6 -6 -5 -6 -6 -6 -6 -6 -6 -5 -5 -5 -5 -6 -5 -6 -6 -5 -5 -5 -4 -4 -4 -5
-9 -9 -8 -8 -9 -9 -9 -9 -9 -8 -8 -8 -8 -8 -7 -8 -7 -7 -7 -7 -6 -6 -6 -6 -6 -6 -6 -6 -5 -5 -5 -6 -6 -6 -6 -6 -6 -5 -5 -5 -5 -5 -5
-10 -10 -9 -8 -9 -9 -9 -8 -8 -8 -9 -8 -8 -8 -8 -8 -8 -7 -7 -7 -6 -6 -6 -6 -6 -6 -6 -6 -6 -6 -6 -6 -6 -6 -6 -6 -6 -6 -5 -5 -5 -5 -5
-11 -10 -9 -8 -9 -9 -9 -9 -8 -8 -8 -8 -7 -8 -9 -8 -8 -8 -7 -7 -7 -7 -6 -6 -6 -6 -6 -6 -6 -6 -6 -6 -6 -6 -5 -5 -6 -6 -6 -6 -5 -5 -5
-12 -11 -10 -9 -8 -9 -9 -9 -9 -8 -8 -8 -8 -8 -8 -8 -8 -8 -8 -8 -8 -8 -7 -7 -7 -7 -7 -7 -7 -7 -7 -6 -6 -5 -5 -5 -6 -6 -6 -6 -6 -5 -5
-13 -13 -11 -10 -9 -9 -9 -9 -9 -9 -8 -9 -8 -9 -8 -9 -9 -8 -8 -8 -8 -8 -7 -7 -7 -7 -7 -7 -7 -7 -7 -7 -6 -6 -6 -6 -6 -6 -6 -6 -6 -6 -6
-13 -13 -13 -11 -10 -10 -9 -10 -9 -9 -9 -10 -9 -10 -9 -8 -8 -8 -8 -9 -8 -8 -7 -8 -8 -8 -8 -7 -7 -7 -7 -7 -7 -7 -7 -7 -7 -6 -6 -6 -6 -6 -6
-16 -14 -13 -12 -11 -11 -10 -10 -10 -9 -9 -9 -9 -9 -9 -9 -9 -9 -8 -9 -8 -8 -8 -8 -8 -8 -8 -8 -8 -8 -8 -8 -8 -8 -8 -7 -7 -7 -7 -7 -7 -7 -7
-16 -16 -14 -13 -12 -12 -11 -10 -10 -10 -10 -9 -8 -9 -9 -9 -9 -9 -9 -8 -9 -8 -8 -8 -8 -9 -8 -8 -8 -8 -8 -8 -7 -8 -8 -8 -8 -8 -8 -8 -8 -8 -7
-19 -16 -15 -13 -12 -11 -11 -10 -10 -10 -10 -9 -8 -9 -10 -10 -9 -9 -9 -9 -8 -8 -8 -8 -8 -8 -8 -8 -8 -8 -8 -8 -8 -8 -8 -8 -8 -8 -8 -8 -8 -8 -8
-20 -18 -15 -14 -14 -13 -11 -12 -10 -10 -10 -9 -10 -9 -10 -9 -9 -10 -10 -9 -9 -9 -8 -7 -7 -8 -8 -9 -9 -9 -9 -8 -8 -8 -8 -8 -8 -8 -8 -8 -8 -8 -8
-21 -21 -18 -15 -14 -13 -13 -11 -10 -10 -10 -10 -10 -10 -10 -10 -10 -10 -10 -9 -9 -9 -8 -9 -8 -8 -9 -9 -8 -8 -8 -8 -9 -8 -8 -8 -8 -8 -8 -8 -8 -8 -8
-20 -20 -20 -17 -15 -14 -13 -11 -11 -11 -11 -10 -10 -10 -11 -11 -10 -10 -10 -10 -9 -10 -9 -9 -8 -8 -8 -8 -8 -8 -8 -8 -8 -8 -8 -8 -8 -8 -8 -8 -8 -8 -8
-20 -20 -20 -19 -17 -15 -13 -12 -13 -14 -12 -12 -11 -11 -11 -11 -10 -10 -10 -10 -9 -9 -9 -9 -8 -8 -8 -8 -8 -8 -8 -8 -8 -8 -8 -8 -8 -8 -8 -9 -8 -8 -8
Height
5919 5923 5926 5929 5934 5937 5940 5943 5944 5946 5946 5948 5952 5956 5958 5959 5960 5961 5962 5962 5963 5964 5965 5967 5969 5970 5971 5973 5973 5974 5975 5976 5977 5977 5978 5978 5978 5977 5977 5977 5978 5977 5977
5913 5917 5920 5923 5928 5933 5936 5938 5941 5944 5946 5947 5949 5953 5956 5958 5959 5960 5961 5962 5962 5963 5963 5965 5967 5969 5970 5971 5972 5973 5973 5975 5976 5976 5977 5977 5976 5976 5976 5976 5976 5976 5976
5908 5912 5915 5918 5922 5926 5930 5933 5936 5939 5942 5945 5947 5948 5951 5955 5958 5959 5960 5961 5962 5963 5963 5964 5965 5966 5967 5969 5970 5971 5972 5973 5974 5974 5975 5975 5975 5975 5975 5975 5975 5974 5974
5904 5906 5910 5914 5918 5920 5923 5927 5930 5934 5937 5939 5942 5944 5947 5951 5954 5957 5958 5959 5960 5961 5962 5962 5963 5964 5965 5966 5967 5968 5969 5970 5971 5972 5972 5972 5972 5972 5972 5973 5972 5972 5972
5898 5902 5905 5908 5912 5914 5918 5921 5925 5928 5931 5934 5936 5940 5943 5947 5950 5952 5954 5956 5957 5958 5959 5960 5961 5962 5963 5963 5964 5966 5967 5967 5968 5968 5969 5969 5969 5968 5969 5970 5970 5969 5968
5893 5895 5897 5901 5905 5908 5910 5915 5919 5923 5926 5928 5931 5934 5938 5942 5945 5947 5949 5951 5953 5954 5955 5956 5958 5959 5959 5960 5960 5961 5962 5963 5964 5964 5964 5965 5964 5965 5965 5966 5967 5966 5965
5883 5886 5890 5893 5897 5901 5903 5906 5910 5914 5918 5922 5925 5928 5932 5936 5939 5942 5944 5945 5947 5949 5950 5951 5953 5954 5955 5956 5956 5957 5958 5959 5959 5958 5959 5959 5960 5958 5960 5961 5962 5961 5960
5871 5876 5880 5885 5889 5893 5896 5900 5903 5905 5909 5913 5917 5921 5925 5929 5932 5935 5937 5940 5942 5944 5945 5946 5948 5949 5950 5951 5952 5953 5953 5953 5953 5954 5954 5953 5953 5953 5954 5957 5957 5956 5956
5864 5867 5869 5873 5877 5882 5888 5891 5895 5897 5900 5904 5908 5912 5918 5921 5924 5926 5928 5931 5935 5938 5940 5941 5942 5943 5945 5945 5947 5947 5948 5947 5947 5948 5949 5949 5948 5948 5949 5950 5949 5951 5950
5853 5858 5861 5864 5868 5871 5875 5880 5884 5889 5891 5895 5899 5903 5908 5913 5916 5919 5920 5923 5928 5932 5934 5936 5937 5938 5938 5939 5940 5941 5944 5940 5941 5943 5944 5944 5943 5943 5942 5942 5942 5943 5945
5841 5845 5849 5854 5855 5859 5862 5867 5873 5879 5882 5885 5889 5893 5897 5902 5906 5909 5911 5914 5920 5923 5926 5929 5931 5931 5931 5933 5933 5936 5938 5936 5936 5937 5938 5938 5937 5936 5935 5935 5936 5936 5936
5826 5831 5835 5840 5844 5846 5851 5855 5860 5867 5872 5874 5878 5881 5886 5890 5896 5899 5901 5905 5909 5913 5917 5919 5922 5923 5923 5926 5927 5929 5930 5930 5930 5931 5930 5930 5930 5930 5929 5929 5928 5928 5929
5810 5816 5820 5826 5832 5836 5839 5843 5847 5853 5859 5863 5866 5871 5875 5879 5883 5887 5890 5894 5898 5902 5906 5908 5911 5913 5915 5918 5921 5920 5921 5924 5924 5924 5923 5923 5922 5923 5923 5922 5921 5921 5921
5794 5800 5804 5810 5817 5822 5825 5830 5836 5840 5846 5852 5855 5860 5863 5866 5870 5874 5878 5881 5885 5889 5894 5896 5899 5903 5906 5911 5911 5912 5913 5914 5916 5917 5916 5915 5914 5915 5916 5915 5916 5915 5914
5773 5782 5789 5795 5801 5807 5812 5817 5823 5827 5831 5836 5843 5848 5852 5857 5861 5860 5864 5868 5872 5876 5878 5884 5890 5895 5897 5900 5901 5902 5903 5904 5906 5907 5908 5908 5907 5906 5908 5907 5908 5907 5908
5754 5761 5770 5779 5785 5792 5798 5803 5808 5813 5817 5825 5829 5833 5841 5847 5847 5850 5853 5856 5860 5863 5867 5876 5880 5884 5887 5888 5889 5890 5892 5894 5895 5896 5899 5900 5900 5898 5897 5897 5898 5899 5899
5732 5741 5750 5761 5768 5776 5782 5789 5793 5799 5805 5812 5817 5823 5828 5834 5835 5838 5840 5843 5847 5850 5857 5864 5869 5872 5875 5876 5877 5878 5880 5882 5884 5887 5888 5889 5890 5890 5888 5887 5887 5888 5889
5708 5719 5729 5740 5750 5757 5765 5773 5778 5786 5792 5798 5802 5808 5813 5820 5821 5824 5828 5832 5839 5842 5846 5851 5855 5858 5861 5863 5865 5866 5868 5870 5873 5875 5876 5877 5878 5877 5877 5877 5877 5877 5878
5683 5695 5706 5719 5729 5740 5748 5757 5765 5772 5777 5784 5789 5794 5800 5803 5807 5811 5814 5822 5826 5831 5835 5838 5842 5846 5848 5850 5853 5854 5856 5859 5860 5863 5865 5865 5864 5864 5865 5865 5865 5865 5865
5659 5671 5684 5696 5707 5720 5730 5740 5748 5755 5763 5771 5772 5780 5784 5789 5794 5799 5802 5809 5814 5820 5820 5825 5827 5830 5835 5840 5842 5843 5845 5848 5850 5851 5853 5853 5853 5851 5852 5852 5852 5852 5852
5636 5647 5659 5673 5686 5700 5712 5722 5731 5741 5750 5753 5762 5764 5770 5775 5779 5785 5789 5795 5799 5803 5806 5810 5813 5817 5821 5826 5829 5831 5833 5835 5837 5839 5840 5841 5840 5840 5839 5839 5840 5839 5838
5614 5626 5637 5650 5666 5681 5691 5701 5712 5722 5731 5739 5743 5749 5754 5760 5767 5771 5776 5781 5785 5790 5793 5796 5798 5800 5803 5809 5816 5818 5819 5821 5823 5825 5825 5827 5827 5827 5825 5825 5826 5824 5824
5596 5603 5617 5629 5642 5658 5671 5683 5693 5703 5710 5718 5726 5733 5740 5746 5750 5757 5762 5766 5771 5776 5779 5779 5783 5785 5787 5793 5800 5804 5806 5808 5809 5811 5811 5812 5813 5812 5811 5810 5810 5809 5807
5582 5588 5596 5609 5621 5636 5651 5664 5674 5683 5692 5700 5708 5717 5724 5731 5736 5743 5749 5753 5757 5760 5762 5765 5769 5772 5776 5781 5785 5788 5790 5792 5794 5794 5796 5796 5796 5794 5794 5793 5792 5792 5791
5569 5575 5580 5589 5600 5614 5631 5642 5651 5660 5673 5682 5691 5700 5707 5715 5720 5727 5733 5737 5741 5746 5751 5754 5758 5761 5763 5767 5770 5773 5775 5777 5778 5780 5779 5779 5779 5777 5776 5776 5775 5774 5773
5557 5562 5568 5574 5583 5594 5610 5621 5631 5642 5656 5662 5673 5682 5692 5699 5704 5710 5716 5722 5726 5733 5738 5741 5744 5746 5748 5751 5755 5757 5759 5762 5763 5764 5763 5764 5763 5761 5759 5758 5758 5756 5756
Wind_Speed
30 34 30 27 26 24 23 23 21 20 19 18 16 13 10 10 9 9 7 8 10 12 15 16 16 14 14 14 12 10 7 7 7 7 6 5 4 4 4 3 3 2 5
33 33 35 32 28 26 24 25 23 21 21 20 18 15 13 13 11 11 9 8 7 8 11 13 15 16 16 15 14 12 11 9 7 6 6 6 7 7 7 6 6 4 5
35 33 34 36 33 30 29 28 26 24 22 22 22 20 18 16 15 13 12 11 9 9 8 8 12 15 18 18 18 17 14 13 12 11 10 10 11 11 10 8 8 8 7
33 35 34 35 35 34 34 33 31 29 27 25 24 24 23 20 18 16 15 14 14 12 10 9 9 9 13 16 19 20 19 18 16 16 14 14 15 14 13 10 12 10 10
31 33 35 35 36 39 38 36 34 33 31 29 28 26 26 23 21 19 19 18 16 15 14 13 12 10 10 12 15 18 20 22 21 21 19 18 18 18 15 14 15 16 17
36 34 34 34 39 40 41 42 40 36 35 33 30 29 28 26 26 25 23 22 20 19 17 17 16 14 13 13 15 16 16 21 23 24 25 24 24 22 18 16 17 17 18
45 43 42 38 36 42 43 42 42 42 40 37 35 33 30 29 29 28 27 27 25 23 22 20 19 19 18 17 16 16 17 19 20 23 26 27 27 26 23 19 18 19 21
48 42 41 43 42 41 42 44 42 43 43 41 39 37 35 32 32 32 32 31 30 28 26 24 23 22 22 21 18 16 17 19 21 20 21 24 28 29 28 24 23 22 21
46 46 41 43 48 46 43 40 42 45 44 42 42 41 39 37 36 35 35 33 31 29 29 28 27 25 24 25 22 21 18 19 21 20 18 20 20 24 27 27 29 25 24
51 49 47 49 52 53 50 45 42 43 44 45 43 42 42 41 40 38 37 36 32 28 28 29 28 28 29 28 26 25 20 23 21 18 17 18 19 21 22 23 27 26 25
61 51 54 52 46 57 55 51 45 46 43 41 44 46 44 44 43 43 41 39 34 31 30 29 30 30 32 32 30 25 23 26 23 20 19 21 22 23 24 24 22 23 27
62 59 56 52 50 51 60 59 53 51 45 42 43 44 47 46 46 46 45 43 40 37 34 33 33 34 34 33 33 29 26 27 26 24 24 25 26 24 24 23 23 22 24
65 63 60 57 52 49 53 59 60 55 50 45 46 44 45 48 49 49 48 49 46 42 39 38 37 38 38 34 30 33 32 29 28 29 28 28 30 29 27 25 24 22 22
72 67 64 60 54 54 50 56 60 61 56 50 49 48 45 46 48 51 50 51 50 48 45 44 43 41 40 37 36 36 34 32 32 30 32 32 33 33 30 29 27 27 23
79 74 69 63 59 57 56 54 56 61 61 54 50 51 48 44 43 49 53 54 54 51 50 47 43 41 40 38 38 39 38 38 36 35 33 34 35 36 34 34 31 30 28
85 80 76 70 66 62 62 58 58 54 67 59 50 49 50 42 45 45 48 52 55 54 52 47 45 43 42 41 40 40 41 40 40 41 37 33 34 35 36 38 35 34 31
88 89 85 76 72 65 62 56 62 59 62 67 66 62 49 48 50 46 47 46 49 49 47 45 42 42 42 43 44 44 44 44 43 42 41 39 36 36 37 37 37 36 34
91 88 91 84 79 73 69 63 61 66 60 65 64 44 39 41 46 48 45 46 44 43 42 42 41 42 43 44 43 40 40 42 40 41 41 39 39 40 40 39 40 40 39
93 94 90 90 85 77 74 66 67 55 43 50 45 39 42 42 48 52 50 47 43 43 39 40 40 39 39 41 41 39 37 37 36 35 37 37 37 40 41 41 40 40 41
93 95 95 93 91 82 77 71 66 56 57 58 47 50 46 44 45 55 58 48 46 43 43 43 41 41 40 40 38 38 36 36 37 37 37 39 41 42 42 43 42 42 43
81 94 96 95 93 85 77 78 74 71 62 53 55 52 47 46 47 53 65 49 52 52 51 49 46 44 43 43 43 42 40 39 40 40 39 40 40 40 40 42 42 42 43
72 83 95 98 95 89 86 74 67 74 66 62 60 58 56 53 54 55 54 51 57 59 54 57 56 50 45 42 43 43 42 42 43 42 40 41 43 46 49 49 49 49 47
67 75 89 97 97 95 94 85 76 77 76 70 62 60 60 60 58 55 54 53 55 56 67 55 53 49 42 41 46 46 47 47 48 48 47 47 50 54 56 56 55 52 46
56 63 76 92 97 97 93 90 89 83 69 72 67 62 63 62 60 57 58 57 54 52 45 42 48 48 48 49 50 52 53 53 53 56 57 58 57 57 58 61 59 54 50
45 52 61 76 88 94 93 97 100 96 74 76 75 70 62 64 58 56 59 57 53 51 48 47 49 51 51 55 59 59 60 62 61 58 61 59 60 62 65 66 68 66 63
36 37 46 57 71 83 92 98 95 87 83 67 64 61 62 58 57 56 59 60 54 55 51 52 54 53 53 54 57 61 62 62 63 64 64 64 65 68 71 71 74 71 71
Wind_Direction
214 215 213 210 218 215 212 210 207 207 197 191 196 209 214 206 202 202 192 177 184 194 195 195 195 193 189 185 183 178 180 185 191 199 208 214 220 245 267 280 289 350 18
215 218 216 215 215 220 219 218 215 214 210 206 205 211 218 220 210 214 214 204 184 185 195 202 206 205 205 202 197 196 198 203 212 224 225 235 246 256 269 273 283 305 341
215 219 223 220 216 218 222 221 221 218 218 216 214 214 214 218 220 217 219 221 216 210 206 199 210 214 215 213 211 211 213 217 220 230 239 250 259 259 260 263 280 296 319
221 221 224 227 224 221 222 225 222 222 222 219 219 219 220 218 223 225 225 225 229 228 229 224 220 225 226 225 226 224 223 227 232 237 243 250 257 263 265 274 285 292 305
238 232 226 229 229 226 227 228 228 226 224 227 224 223 223 223 226 230 232 230 230 234 236 241 242 239 240 243 241 238 237 240 242 247 251 256 262 268 269 270 274 287 296
235 237 233 235 234 232 229 230 234 233 232 230 231 229 231 230 230 233 237 240 238 237 237 241 245 249 252 256 256 255 253 249 248 249 254 257 263 269 276 274 276 281 282
235 232 238 239 238 235 234 233 233 234 234 234 234 234 233 234 237 240 240 243 244 241 240 239 242 243 248 254 260 264 257 257 259 258 256 258 259 268 271 271 273 276 279
232 240 237 239 241 241 239 238 237 237 236 236 236 237 237 237 238 242 245 246 249 248 244 243 242 244 247 250 254 260 262 258 256 261 267 267 266 267 271 271 269 275 279
240 244 250 242 240 239 240 241 240 239 240 239 237 238 238 238 240 241 243 245 246 249 251 250 248 247 251 254 254 256 260 261 257 258 265 274 279 277 273 271 268 269 275
241 242 241 244 249 239 240 239 240 241 239 241 242 239 239 239 240 242 244 247 245 246 252 254 254 251 250 253 253 256 262 266 263 263 264 267 273 277 279 275 268 268 269
242 240 243 245 255 236 238 237 242 244 240 238 240 243 242 241 241 243 244 247 248 246 247 251 257 257 255 256 259 258 261 267 273 270 268 267 269 277 282 286 286 274 266
236 240 243 243 248 240 239 241 244 244 242 240 240 241 243 244 244 244 246 247 248 247 246 246 250 254 256 258 262 264 262 263 271 272 270 271 269 274 282 288 289 283 270
232 235 239 241 244 247 243 240 244 240 236 243 246 243 244 244 243 244 244 246 247 248 247 246 248 250 255 258 264 263 262 264 265 265 264 270 274 274 277 281 285 288 281
234 234 234 238 241 243 237 239 240 241 241 242 245 245 242 244 242 242 242 245 246 246 246 246 248 252 257 260 263 268 269 266 266 268 267 267 271 275 276 276 278 282 285
233 234 233 234 239 236 240 240 236 241 236 239 238 239 239 239 242 243 242 244 244 244 244 246 251 256 258 259 260 261 263 266 267 264 265 263 267 272 275 274 273 273 277
230 232 233 231 233 235 235 239 239 242 243 238 237 234 236 232 237 244 245 244 245 246 246 246 249 253 257 260 260 259 260 261 263 266 265 267 266 268 272 274 274 273 271
229 231 232 231 230 233 236 239 243 237 241 238 238 240 231 231 235 242 246 244 244 247 249 248 249 250 252 254 257 260 263 263 264 267 270 270 268 269 271 275 277 276 275
225 228 230 230 228 229 235 236 238 237 242 246 239 225 228 236 241 239 244 244 247 248 251 245 246 249 253 255 257 257 261 264 266 267 267 267 269 270 270 273 276 279 278
224 225 227 227 229 229 232 233 236 231 229 225 227 231 237 239 244 240 243 240 244 248 246 244 244 247 250 253 252 253 255 259 261 264 268 268 267 267 270 272 273 275 278
228 225 225 226 227 228 228 228 235 238 236 237 238 234 238 244 249 241 240 235 240 241 242 240 239 239 243 245 250 253 255 259 261 263 264 266 267 268 271 273 273 274 276
232 228 227 225 225 225 229 229 232 232 222 220 233 239 244 249 249 243 244 244 236 235 236 238 237 239 242 246 248 250 253 256 258 257 261 264 266 270 271 272 274 277 279
227 228 228 227 224 222 222 224 222 221 221 223 229 233 243 249 248 246 245 248 241 241 242 242 240 239 243 244 252 256 256 255 258 265 262 263 267 271 273 276 275 273 273
232 223 226 227 228 224 225 226 227 226 222 221 226 233 240 247 249 245 249 249 252 253 247 250 246 244 247 251 250 257 259 261 264 266 267 269 271 273 274 274 283 283 276
237 234 223 226 228 228 225 222 223 221 222 225 225 231 238 244 245 242 245 246 251 257 259 260 252 249 251 253 256 259 263 265 268 271 274 275 275 277 280 284 286 287 282
241 243 232 224 228 229 226 223 228 225 227 220 224 229 234 240 242 245 246 251 249 248 254 255 254 256 258 259 259 261 263 265 268 271 272 276 279 280 282 284 286 288 288
236 237 236 230 227 229 227 228 234 237 233 227 222 228 232 236 241 245 248 253 256 245 252 257 258 259 260 261 261 262 264 266 269 271 273 275 276 278 280 281 283 285 284